Air Resources Laboratory banner image
Air Resources Laboratory web site National Oceanic and Atmospheric Administration (NOAA)

dc roundup


Office: AKQ

ASUS41 KAKQ 171314
RWRAKQ

REGIONAL WEATHER ROUNDUP
NATIONAL WEATHER SERVICE WAKEFIELD VA
900 AM EDT TUE JUL 17 2018

Note: "fair" indicates few or no clouds below 12,000 feet with no
significant weather and/or obstructions to visibility. * = Denotes
station may not report precipitation (e.g., rain,snow,etc.),
thunder or fog.

VAZ042-051-052>054-056-171400-
NORTHERN VIRGINIA

CITY           SKY/WX    TMP DP  RH WIND       PRES   REMARKS
WASH NATIONAL  PTSUNNY   83  73  72 S8        29.88F
DULLES         FAIR      79  73  82 SW7       29.89S
FORT BELVOIR   FAIR      82  72  71 SW6       29.88F
QUANTICO       FAIR      83  74  74 SW8       29.88F
FREDERICKSBRG* FAIR      81  73  76 SW9       29.88F
STAFFORD*      FAIR      82  76  81 S5        29.92F
WARRENTON      FAIR      80  71  75 CALM      29.88F
CULPEPER*      FAIR      79  73  81 SW3       29.90S
MANASSAS*      FAIR      80  74  81 SW6       29.89F
LEESBURG*      FAIR      79  72  78 CALM      29.89F
WINCHESTER     FAIR      77  70  78 SW7       29.91F
FRONT ROYAL*   FAIR      79  72  78 SW5       29.89S
LURAY*         FAIR      79  72  78 SW6       29.92S
$$

VAZ048-049-060>072-079>083-171400-
CENTRAL AND SOUTH CENTRAL VIRGINIA

CITY           SKY/WX    TMP DP  RH WIND       PRES   REMARKS
RICHMOND       PTSUNNY   82  73  74 SW9       29.92F
CHESTERFIELD*  FAIR      81  74  79 SW7       29.93S
PETERSBURG*    FAIR      81  72  73 SW5       29.94S
HANOVER        FAIR      82  72  71 SW12      29.93S
TAPPAHANNOCK*  NOT AVBL
QUINTON*       FAIR      81  73  77 SW3       29.92S
CHARLOTTSVILLE FAIR      81  72  74 S7        29.91S
GORDONSVILLE*  FAIR      78  76  94 S8        29.90F
ORANGE*        FAIR      77  73  88 S6        29.90S
LOUISA*        FAIR      79  73  81 SW6       29.95F
BUMPASS*       FAIR      77  74  89 SW7       29.91F
FARMVILLE*     FAIR      78  72  83 SW7       29.92F
CREWE*         FAIR      79  79 100 SW7       29.93F
FORT PICKETT*  FAIR      80  77  89 SW8       29.94F
CHASE CITY*    FAIR     N/A N/A N/A CALM      29.95F
CLARKSVILLE*   FAIR      79  73  83 S8        29.95S
SOUTH HILL*    FAIR      77  75  95 S7        30.01S
LAWRENCEVILLE* FAIR      79  73  82 SW7       29.95S
EMPORIA*       FAIR      81  72  74 S7        29.96S
$$

VAZ088>098-171400-
SOUTHEAST VIRGINIA

CITY           SKY/WX    TMP DP  RH WIND       PRES   REMARKS
NORFOLK        FAIR      83  74  74 SW9       29.95S
VIRGINIA BEACH FAIR      82  71  69 SW10      29.94F
NORFOLK NAVAL  FAIR      82  72  71 SW7       29.96S
WEST POINT*    FAIR      82  74  76 SW6       29.94S
SALUDA*        FAIR      82  75  80 SW7       29.92F
NEWPORT NEWS   FAIR      83  72  69 SW10      29.94F
LANGLEY AFB    SUNNY     83  74  74 SW13      29.95S
FORT EUSTIS    SUNNY     82  74  77 S5        29.92F
WILLIAMSBURG*  FAIR      82  72  69 CALM      29.94F
HR EXEC AP*    FAIR      81  73  76 SW7       29.96S
FRANKLIN*      FAIR      80  73  79 S6        29.95F
US460-WAKEFLD  FAIR      81  72  74 SW8       29.94F
$$

VAZ020-022-025-037-045-171400-
WEST CENTRAL AND SOUTHWEST VIRGINIA

CITY           SKY/WX    TMP DP  RH WIND       PRES   REMARKS
STAUNTON*      FAIR      78  70  78 S5        29.96S
WAYNESBORO*    FAIR      79  72  79 SW8       29.96S
HOT SPRINGS VA FOG       68  68 100 W15       30.08S VSB 1/2
LYNCHBURG      FAIR      78  71  79 S8        29.96S
DANVILLE       FAIR      77  75  93 SW8       29.96S
SOUTH BOSTON*  FAIR      80  73  80 W7        29.95S
MARTINSVILLE   FAIR      76  72  85 SW3       30.01R
ROANOKE        FAIR      78  69  73 W12       29.98F
BLACKSBURG     FAIR      73  71  92 SW3       30.07R
DUBLIN*        FAIR      77  70  79 SW6       30.06R
MARION*        CLOUDY    72  70  94 W7        30.11R FOG
HILLSVILLE*    FAIR      71  69  94 W6        30.08R
RICHLANDS*     PTSUNNY   71  67  87 W8        30.10R
WISE*          FAIR      72  72 100 SW6       30.10S
ABINGDON*      CLOUDY    73  73 100 W3        30.08R FOG
$$

MDZ021>025-VAZ099-100-171400-
SOUTHERN MARYLAND AND THE DELMARVA PENINSULA

CITY           SKY/WX    TMP DP  RH WIND       PRES   REMARKS
PATUXENT RIVER FAIR      83  76  79 SW12      29.90S
BAY BRIDGE APT FAIR      82  73  74 S8        29.88F
LEONARDTOWN    FAIR      82  72  69 SW14      29.92S
DOVER          MOSUNNY   84  74  71 SW10      29.89S
GEORGETOWN     FAIR      84  75  74 SW10      29.91F
EASTON         SUNNY     84  73  70 SW9       29.93F
CAMBRIDGE      SUNNY     82  73  74 SW9       29.90S
SALISBURY      FAIR      84  75  74 SW14      29.91F
TANGIER        FAIR      82  79  89 S7        29.92F
OCEAN CITY     FAIR      82  76  81 SW9       29.92F
WALLOPS ISLAND FAIR      85  75  72 SW8       29.93F
ACCOMACK*      FAIR      84  74  73 SW6       29.94S
$$

NCZ012>017-030>032-171400-
NORTH CENTRAL AND EASTERN NORTH CAROLINA

CITY           SKY/WX    TMP DP  RH WIND       PRES   REMARKS
ROANOKE RAPIDS FAIR      79  72  78 SW5       29.96S
RALEIGH        PTSUNNY   80  73  79 SW9       29.98S
ELIZABETH CITY FAIR      83  75  77 SW7       29.97S
AHOSKIE*       FAIR      79  74  84 MISG      29.96S
EDENTON*       FAIR      82  75  80 SW8       29.98S
CURRITUCK*     FAIR      82  71  68 MISG      29.97F
KILL DEVIL HLS   N/A     81  71  72 W6        29.97S
MANTEO         FAIR      82  72  72 W5        29.99S
CAPE HATTERAS  FAIR      82  77  84 SW7       30.01R
TARBORO*       NOT AVBL
GOLDSBORO      FAIR      82  74  77 SW10      29.98R
WASHINGTON     FAIR      80  74  81 SW5       29.99S
GREENVILLE     FAIR      82  73  74 SW9       30.00S
NEW BERN       FAIR      81  75  82 SW7       30.00S
WILMINGTON     FAIR      79  72  79 SW10      30.02R
$$

VAZ048-171400-
ELSEWHERE

CITY           SKY/WX    TMP DP  RH WIND       PRES   REMARKS
HARRISBURG PA  PTSUNNY   82  71  69 CALM      29.86F
BALTIMORE      FAIR      81  75  82 SW6       29.87F
ANNAPOLIS      FAIR      84  73  69 SW3       29.87F
ANDREWS AFB    FAIR      82  71  69 SW9       29.88F
PHILADELPHIA   PTSUNNY   81  73  76 SW13      29.89S
HENDERSON NC   FAIR      74  70  86 SW7       29.98R
GREENSBORO     FAIR      79  73  82 SW7       29.98R
ROCKY MOUNT    FAIR      81  73  76 SW10      29.97S
$$

VAZ100-171400-
MARINE

STATION/POSITION TIME  TEMP    WIND        PRES    WAVE   SWELL
                       AIR SEA DIR/SP/G            HT/PER HT/PER
                 (UTC) (F)     (DEG/KT/KT) (MB)    (FT/S) (FT/S)
BRANDYWINE LGT   1236   78     210/ 11/ 12 1012.9F
CAPE MAY NJ      1248   78 75  190/  7/ 10 1012.2F
LEWES DE         1236   81 73              1012.6F
15NM E FENWICK I 1250   76 75  200/ 14/ 16 1013.5F   3/ 5   2/ 9
OCEAN-CITY-INLET 1236   75 76  210/  9/ 11 1013.8F
WACHAPREAGUE VA  1248   83 80  180/  6/ 10 1013.7F
THOMAS POINT MD  1300   79 80  170/  9/ 10 1012.7F
GOOSES REEF MD   1300   81     260/ 10/ 10 1013.7    1
COVE POINT MD    1248   81     270/ 12/ 20 1012.9S
SOLOMONS ISLAND  1248   82 81  240/ 13/ 17 1012.3F
BISHOPS HEAD MD  1248   81 85  220/ 12/ 13 1013.4F
POTOMAC MD       1300   81 81  230/ 10/ 12 1013.0
CAMBRIDGE MD     1248   85 82              1013.6S
LEWISETTA VA     1248   81 82  240/ 11/ 13 1012.9F
RAPPAHANNOCK LGT 1248          200/ 12/ 13 1014.4F
STINGRAY PT      1300   81 81  250/  8/ 12 1014.7    1
YORK RVR RNG VA  1248   81     240/  8/  9 1014.1F
YORKTOWN VA      1248   81 81  210/  5/  7 1013.1F
DOMINION TERM VA 1236   79     230/  6/  9 1014.4R
KIPTOPEKE VA     1236      80  220/  7/  8   N/A
CAPE HENRY VA    1248   81     210/  5/ 11 1012.7S
WILLOUBY STN VA  1236   79     220/ 11/ 12 1013.4S
S CRANEY ISL VA  1248   80     210/  6/  9 1014.1S
CAPE HENRY BUOY  1300      78                N/A     2/11
1ST LANDING BUOY 1300   80     230/  8/ 10 1013.9    1/ 4
64NM E OF VA BCH 1250   76 76  200/  6/  8 1015.5R   3/ 6   3/ 6
DUCK PIER NC     1248   80 73  230/  7/  9 1014.7F
44100 DUCK FRF   1245      78                N/A     3/ 6
44056 DUCK FRF   1300      75                N/A     2/ 5
OREGON INLET NC  1236   80 81  230/  9/ 11 1015.3R
HATTERAS NC      1248   81 80  200/  3/  7 1015.7S
DIAMOND SHLS NC  1300   82 83  220/ 10/ 12 1016.5
CAPE LOOKOUT NC  1300          210/  9/ 12 1016.7R
$$